GFSCGP_850_temp_078.txt.gz
Temp
17 16 16 18 19 19 20 21 21 24 26 25 25 24 25 26 26 25 25 25 24 23 22 20 18 17 16 14 12 11 11 11 10 10 10 10 10 10 9 9 10 10 9 10
17 16 17 18 19 19 20 20 20 23 25 24 24 24 25 26 26 26 26 25 25 24 22 21 18 17 15 14 12 11 10 10 10 10 10 10 10 10 9 9 9 9 9 10
15 16 17 16 17 18 20 19 20 21 23 24 24 22 23 25 26 26 26 26 26 24 23 21 18 16 14 14 12 11 10 10 10 10 10 10 10 9 9 9 8 9 10 10
16 16 15 14 12 14 16 20 21 21 21 20 23 21 23 25 25 25 26 25 25 25 23 21 19 17 15 13 13 11 11 10 10 10 10 10 10 9 9 9 9 9 9 10
15 14 14 13 11 13 14 18 18 18 20 20 21 21 22 25 24 26 26 26 25 25 24 22 20 18 16 14 13 12 11 11 10 10 10 10 10 9 10 9 10 10 10 9
16 16 15 12 13 15 15 17 16 17 19 18 20 20 21 23 24 26 27 26 26 25 24 23 21 19 17 15 13 12 12 10 10 10 10 10 9 9 9 9 10 10 10 10
14 15 14 13 11 13 15 15 11 13 16 17 20 20 22 24 26 27 26 26 26 25 24 23 21 19 17 16 14 12 12 10 11 11 10 10 10 9 10 10 10 10 10 10
13 12 15 14 13 12 14 15 11 14 16 17 21 20 23 25 26 25 25 25 25 25 24 23 22 20 18 16 15 13 12 12 10 10 10 10 11 10 10 10 10 10 10 11
14 14 16 15 15 14 12 13 15 13 13 12 19 23 24 25 25 25 25 25 25 24 24 23 23 21 19 17 15 14 12 12 11 11 10 10 10 10 10 10 9 9 9 10
14 13 16 16 16 14 13 16 14 12 12 13 18 20 22 23 23 24 24 25 25 25 24 23 23 21 19 18 16 14 14 12 12 12 12 10 10 10 10 10 10 9 9 10
15 13 14 16 14 14 14 14 12 13 13 14 16 18 22 21 23 22 23 23 23 23 23 23 23 22 20 19 17 15 14 13 13 13 12 12 10 10 10 9 9 9 9 9
13 14 13 15 16 16 16 15 15 11 12 15 15 17 21 21 22 21 21 22 21 21 21 23 22 22 21 19 17 16 14 14 14 14 13 12 11 11 10 10 10 10 10 9
12 13 12 13 13 17 14 14 14 16 13 10 11 17 19 20 20 21 21 21 21 21 20 21 21 21 21 20 18 17 15 14 14 14 13 12 12 11 11 11 10 10 10 10
11 11 12 11 10 11 13 14 14 15 14 14 12 14 16 16 17 19 21 21 21 20 21 20 21 21 21 20 19 18 17 15 14 14 14 13 13 12 12 11 11 10 11 10
12 10 11 12 12 12 10 12 13 11 12 13 15 15 16 16 18 19 20 20 19 18 18 17 17 17 18 19 19 18 17 16 15 15 14 13 13 12 12 11 11 11 10 10
13 11 12 12 14 11 14 15 16 15 14 16 15 14 16 16 20 20 19 18 17 16 16 16 16 15 16 16 17 18 18 17 16 15 15 14 13 12 12 11 11 11 11 11
11 11 11 11 13 13 12 14 15 16 17 16 16 18 18 18 19 19 18 17 16 15 15 15 15 14 14 15 15 16 17 17 17 16 15 14 13 13 12 12 11 11 11 10
10 11 11 10 12 10 14 17 17 16 16 17 18 18 17 18 18 17 17 15 15 15 15 15 14 13 12 13 14 15 16 16 17 17 17 15 14 13 12 12 11 11 11 10
11 10 9 10 11 13 15 16 16 16 16 18 18 17 17 16 16 15 15 15 14 14 14 13 12 11 11 11 12 13 14 14 15 16 17 16 15 14 13 13 12 11 11 10
11 11 9 10 9 10 14 16 16 17 14 16 16 15 15 15 13 14 14 14 14 14 12 10 10 10 10 10 10 10 10 11 12 13 15 15 16 15 14 13 13 12 11 11
9 8 8 8 8 12 15 14 15 13 12 14 14 13 13 13 12 13 13 14 13 12 10 8 7 7 8 8 7 7 7 8 9 10 11 14 15 15 15 14 13 12 12 11
9 7 8 8 8 8 14 14 11 11 11 11 11 11 11 11 11 11 12 12 10 9 8 6 4 4 5 6 7 8 7 7 7 8 9 11 13 14 14 14 13 13 12 11
7 10 10 10 10 14 14 11 11 11 11 10 10 10 9 9 9 10 9 9 8 7 4 3 2 4 4 4 5 6 6 6 6 6 7 8 9 10 11 13 13 12 12 11
10 10 9 9 12 12 7 9 10 10 10 9 8 7 7 7 7 7 7 5 4 3 1 -1 -1 1 1 2 2 3 5 6 6 6 5 5 6 7 8 9 9 10 10 10
11 8 8 7 7 8 6 5 7 7 6 6 6 5 4 4 3 2 3 0 -0 -1 -2 -3 -1 -1 -0 1 1 1 3 4 4 4 4 4 2 2 2 3 5 6 6 6
10 7 6 7 7 7 5 5 5 5 4 4 4 4 2 1 -1 -2 -3 -2 -3 -4 -4 -4 -3 -3 -3 -2 -1 -0 1 1 3 3 3 1 1 -1 -1 -3 -2 -2 -1 -1

GFSCGP_850_temp_081.txt.gz
Temp
15 12 11 13 15 16 16 16 16 18 20 21 21 19 20 21 22 21 23 24 23 22 22 21 19 18 17 16 15 14 13 11 11 11 10 10 11 11 10 10 10 9 9 10
13 12 14 15 16 16 15 15 16 18 20 20 20 20 20 20 20 22 22 24 23 23 22 20 19 18 17 16 15 14 13 12 10 10 10 10 10 10 10 10 10 10 10 10
12 15 16 15 15 15 15 15 16 16 19 20 19 19 19 21 22 24 23 24 24 23 21 20 19 18 17 16 15 14 13 12 11 10 10 10 10 9 9 9 10 10 10 10
13 15 15 14 14 14 13 15 15 14 12 12 15 15 18 20 21 22 23 24 24 23 22 20 19 18 17 16 15 14 13 11 10 10 10 10 10 9 9 10 10 10 10 10
13 13 13 12 13 14 13 13 13 11 11 12 14 15 18 20 20 21 22 23 25 25 22 20 20 20 17 16 16 14 13 10 9 9 10 10 10 10 9 9 10 10 10 10
13 15 13 13 14 13 12 10 12 10 10 11 12 14 16 19 21 21 22 23 24 25 22 21 21 20 17 16 15 14 13 10 10 10 10 10 10 10 10 9 9 9 9 10
13 13 13 12 10 11 9 9 10 10 10 11 15 15 17 20 22 22 22 22 25 25 22 20 19 18 17 16 15 14 13 12 10 9 10 10 10 10 10 10 10 9 9 10
10 10 13 12 11 12 10 8 10 11 11 13 17 16 18 21 22 23 24 24 25 24 23 21 20 19 18 18 16 15 14 13 12 10 10 10 9 9 10 10 10 10 10 10
11 12 15 15 13 12 11 9 10 10 9 10 13 17 21 21 22 21 22 24 23 23 22 21 21 20 19 19 18 17 15 14 13 12 10 10 10 9 9 10 10 10 10 10
12 11 14 15 14 13 12 13 10 8 10 11 15 15 17 20 20 21 20 20 22 23 23 22 21 21 20 20 19 17 17 16 14 12 11 10 11 10 10 10 10 10 10 10
12 10 12 13 13 13 12 11 8 9 10 11 12 13 14 12 18 19 18 19 20 20 22 23 22 21 21 19 19 17 16 16 14 13 12 11 10 10 10 10 10 10 10 9
11 10 10 12 14 15 13 11 10 9 10 12 11 11 12 12 15 17 18 20 20 20 20 20 19 21 20 19 18 18 17 16 15 14 12 12 12 11 10 10 9 9 10 9
11 10 9 11 13 14 12 12 11 9 10 9 10 12 12 12 14 15 16 19 17 17 17 17 18 18 17 17 19 18 17 17 16 15 14 13 12 12 12 11 10 9 9 9
10 10 9 9 9 8 8 10 11 9 9 11 10 12 14 11 12 13 15 16 16 16 16 15 15 16 16 16 15 16 18 17 16 15 14 13 13 13 12 12 12 11 10 9
9 8 10 9 11 12 9 11 8 9 9 9 12 11 14 12 11 12 15 16 15 15 15 15 14 13 14 14 15 15 15 15 16 15 15 15 14 13 13 12 12 11 11 11
10 8 10 10 12 12 12 12 11 9 9 10 11 10 12 15 15 13 13 15 15 15 15 14 13 14 14 13 14 14 14 13 13 15 16 15 15 14 13 13 12 11 11 10
8 8 9 8 11 11 9 11 13 13 11 11 11 14 15 15 13 15 14 14 14 14 12 12 13 13 13 12 12 13 14 14 14 13 13 15 15 15 14 14 13 12 12 11
7 8 8 6 8 8 12 15 15 14 15 15 16 14 14 14 14 14 14 14 13 11 11 12 12 12 12 12 13 13 12 13 13 14 14 13 12 13 14 14 13 13 12 11
7 7 5 6 7 10 12 15 15 15 14 15 16 15 14 14 13 12 13 12 11 10 10 10 10 11 11 11 11 12 12 13 12 12 13 13 12 12 12 13 14 14 12 12
8 7 5 5 7 7 11 13 14 16 11 12 12 12 11 12 9 10 10 10 8 8 9 9 9 9 10 10 9 9 9 10 11 10 10 11 12 12 12 12 13 14 13 12
6 5 6 5 6 7 12 12 14 11 9 10 10 10 10 9 9 9 9 7 7 7 7 6 7 7 6 6 7 7 7 7 7 7 7 8 9 10 11 12 12 12 13 13
6 5 5 5 5 6 11 12 10 8 9 9 8 8 8 8 8 7 6 5 5 5 6 4 5 4 3 2 4 5 5 5 6 6 7 8 8 8 9 10 11 11 11 13
5 7 6 7 6 7 7 8 7 7 7 7 7 7 7 6 6 4 4 3 3 3 3 3 3 1 0 0 1 2 3 4 5 5 6 6 6 8 7 7 8 9 9 10
6 5 6 7 6 6 4 5 6 6 6 6 5 5 5 5 4 2 3 2 1 1 1 0 0 0 1 1 1 1 1 2 2 3 4 4 3 4 6 6 5 5 6 5
6 6 5 6 5 4 3 2 4 4 5 5 4 4 3 3 1 0 0 -1 -1 -1 -0 -0 -0 -0 -0 -1 -0 0 1 1 1 2 2 1 -0 -1 -1 1 3 2 0 -0
6 4 5 4 2 3 1 2 2 2 2 3 2 1 -0 -1 -2 -3 -2 -3 -3 -2 -3 -3 -4 -4 -4 -4 -3 -2 -2 -2 -1 -1 -1 -1 -2 -3 -4 -5 -4 -3 -2 -3

GFSCGP_850_temp_087.txt.gz
Temp
13 10 9 11 12 13 14 13 13 13 15 14 13 13 14 14 16 16 17 18 19 19 22 21 20 20 19 18 17 16 15 14 14 12 11 12 10 10 10 11 11 11 11 11
11 9 11 12 12 12 12 12 12 13 14 14 12 13 15 15 16 16 17 18 19 18 20 20 19 19 19 18 17 16 15 15 14 13 11 11 11 10 10 10 10 11 11 11
10 12 12 12 12 12 12 12 12 13 12 12 12 14 15 17 16 17 17 18 19 18 19 19 19 19 18 18 18 17 15 15 13 12 11 10 10 10 10 10 10 10 11 10
10 12 12 11 12 12 11 13 13 12 11 10 12 11 14 15 15 15 16 17 19 19 19 20 20 19 19 18 17 17 16 15 13 11 11 10 10 9 9 10 10 10 10 11
11 12 11 11 12 12 11 11 11 10 9 9 10 9 13 14 14 15 15 18 19 20 20 19 20 21 19 18 17 16 15 14 14 11 11 10 10 10 10 9 10 9 10 10
11 12 13 12 10 12 10 10 10 10 9 8 10 10 12 13 15 16 16 18 20 21 19 19 21 18 18 17 16 16 15 14 14 12 10 10 10 10 10 10 9 9 10 10
11 11 12 11 9 9 8 8 5 6 9 9 11 10 12 15 15 16 17 18 20 20 20 19 16 16 17 18 16 16 15 14 15 13 10 9 10 10 10 10 10 9 9 10
8 10 10 11 11 10 8 8 6 8 9 9 12 11 12 14 14 16 17 19 19 19 20 19 19 18 18 18 17 17 16 14 15 14 11 10 10 10 11 11 11 11 10 10
9 10 11 10 10 10 8 7 9 7 8 8 10 12 14 13 13 13 14 14 14 17 21 19 18 17 17 18 19 18 17 15 15 14 12 10 9 10 10 10 11 10 10 10
11 10 12 11 11 11 9 9 7 8 8 9 11 12 12 11 11 12 13 12 12 15 16 16 16 17 17 19 19 17 17 16 15 14 12 11 10 9 9 10 10 11 11 10
10 10 10 11 10 9 8 7 7 8 8 10 9 12 10 10 9 10 11 13 12 12 15 14 13 13 14 16 17 17 16 15 15 14 13 11 10 9 9 9 9 10 10 11
9 8 8 9 11 11 10 9 8 8 9 9 9 10 10 9 9 10 11 12 11 11 13 14 13 13 13 13 13 13 14 13 13 12 11 11 11 9 9 9 9 9 9 10
10 7 8 9 10 9 8 9 9 8 8 8 9 10 9 9 8 9 9 10 11 9 9 10 12 11 12 13 13 13 13 13 12 13 12 12 11 10 9 9 9 9 9 9
9 8 8 6 7 8 8 9 9 9 8 8 9 10 10 9 8 9 9 9 10 9 8 7 8 9 10 10 10 10 10 11 11 12 12 12 11 11 10 11 10 9 9 9
7 7 8 8 8 8 8 9 10 8 8 8 9 9 11 10 9 9 8 9 9 8 7 7 8 8 9 9 9 9 10 11 11 10 10 11 11 11 11 11 11 11 10 10
6 7 6 7 8 8 8 9 10 10 9 8 8 8 10 10 9 8 8 8 8 6 5 5 6 10 9 10 10 10 10 10 10 10 9 9 9 9 10 10 10 10 11 11
6 6 5 6 6 7 7 9 10 10 9 9 8 9 10 9 9 9 8 7 6 4 4 5 4 6 7 9 10 9 9 9 9 9 9 9 9 9 10 10 10 10 10 10
5 5 4 4 6 5 9 10 12 11 11 10 11 10 10 8 6 7 7 6 4 3 5 6 6 6 6 8 8 8 9 9 9 9 9 9 9 9 9 9 9 9 9 9
5 4 3 4 5 7 8 10 9 9 9 10 8 10 8 6 6 4 3 4 2 3 3 5 6 6 5 7 8 8 8 9 9 9 8 8 9 9 9 9 9 9 9 9
4 4 4 2 4 4 7 9 9 10 9 7 9 9 8 8 7 4 1 1 2 2 2 4 6 5 5 6 7 7 7 7 7 7 7 7 7 8 8 9 9 9 9 9
3 3 4 3 4 5 8 6 9 8 7 6 6 6 8 4 5 1 1 1 2 2 1 1 2 2 3 4 4 6 6 6 4 4 4 5 5 5 6 6 7 8 8 7
4 3 2 3 4 4 6 7 8 5 4 4 4 3 2 1 0 -0 -1 -1 0 1 0 -0 1 1 1 2 2 3 4 2 3 3 3 4 4 4 4 5 5 5 6 6
2 4 5 5 4 5 4 4 4 4 3 3 3 2 1 0 -1 -2 -2 -1 -2 -3 -2 -1 -1 -1 -0 0 0 1 1 1 2 2 2 2 2 2 3 4 4 4 4 4
2 1 3 4 4 4 3 1 2 2 0 0 -0 1 2 1 -0 -1 -2 -3 -0 -3 -2 -2 -2 -2 -1 -1 -1 -1 -1 -0 -1 -0 0 0 0 0 0 1 1 1 1 -0
2 2 3 2 2 1 0 0 0 1 0 0 -1 -2 -2 -2 -3 -3 -4 -5 -5 -5 -4 -3 -3 -3 -4 -4 -3 -3 -2 -2 -3 -2 -3 -3 -3 -3 -3 -3 -4 -5 -6 -4
-0 -0 1 2 -1 -0 -2 -1 -0 1 0 -1 -2 -2 -3 -2 -4 -5 -6 -8 -7 -7 -7 -6 -6 -6 -6 -6 -5 -5 -4 -4 -4 -4 -4 -4 -5 -5 -5 -6 -7 -6 -7 -7

GFSCGP_850_temp_090.txt.gz
Temp
11 9 8 9 11 12 13 12 12 12 13 13 12 13 11 13 13 13 15 17 18 19 20 20 21 20 19 18 18 17 16 15 14 13 12 12 12 10 11 11 11 10 11 11
10 9 10 11 11 12 12 11 11 12 13 13 11 12 12 12 13 15 15 16 18 19 19 20 20 20 19 19 18 17 16 15 15 14 12 12 13 11 10 10 10 11 10 11
10 12 11 11 11 10 10 10 11 12 12 12 11 13 14 15 15 16 16 17 18 19 19 20 19 19 19 19 19 17 16 15 15 14 12 11 11 10 10 10 10 10 11 11
10 11 11 11 11 11 10 11 12 12 11 9 10 10 13 14 15 14 15 16 17 18 19 20 19 17 18 19 18 17 16 16 14 14 12 12 12 10 10 10 10 10 10 11
10 11 10 10 11 11 11 11 11 10 9 8 9 8 10 12 14 14 15 16 17 17 19 20 20 20 20 15 18 18 17 16 15 14 13 11 10 10 10 10 10 10 10 10
10 12 12 11 9 11 10 10 9 8 8 6 9 9 11 11 13 13 14 15 16 18 19 20 21 18 18 17 14 17 17 16 15 14 13 11 10 10 9 9 9 10 10 10
10 11 11 10 9 9 10 9 5 6 9 7 10 9 11 13 13 12 12 13 15 17 18 20 18 17 17 17 15 16 17 16 16 15 13 12 10 10 10 10 9 9 9 10
7 8 10 10 11 9 8 9 7 8 9 9 10 9 10 12 11 11 11 12 12 14 16 19 19 20 19 17 17 16 17 15 16 15 14 12 11 10 9 9 10 9 9 9
8 10 10 10 9 10 7 8 9 8 7 6 9 10 11 11 11 10 10 10 11 11 13 17 19 19 19 16 18 17 17 15 16 15 14 12 11 10 9 10 10 10 10 9
10 9 10 9 10 9 10 8 7 7 8 9 9 9 10 10 10 10 10 10 10 10 13 16 17 17 15 14 13 16 16 15 16 15 14 12 10 10 9 10 10 10 10 10
10 10 10 10 10 8 8 7 7 8 7 8 8 9 9 9 9 9 10 10 9 8 11 14 14 13 12 11 10 13 14 14 15 14 14 12 11 10 9 9 9 10 10 10
9 8 8 9 9 10 9 8 8 6 7 8 8 9 9 9 9 9 9 9 9 7 8 10 12 11 10 10 10 10 11 12 14 14 13 12 11 11 9 9 9 9 10 10
10 7 8 9 9 9 9 9 9 8 6 8 8 8 9 9 9 8 8 8 7 6 6 7 9 9 9 10 10 10 11 12 13 13 12 12 11 11 9 8 9 8 9 9
9 7 8 7 7 8 8 9 9 8 7 8 8 8 10 10 9 9 8 8 6 5 4 5 6 6 8 9 9 9 10 10 11 11 11 10 11 10 10 10 9 9 8 8
7 6 7 8 8 8 8 8 8 8 8 7 8 8 9 10 10 9 7 6 6 4 3 3 3 5 6 7 8 9 9 10 10 10 10 10 10 10 10 10 9 10 10 9
6 6 6 7 8 7 7 7 7 8 9 8 10 9 10 10 10 8 8 6 5 4 3 4 4 5 5 6 6 7 8 9 10 9 9 9 9 9 9 9 10 10 10 10
6 5 5 6 6 6 7 7 8 8 8 8 7 9 9 8 8 9 6 5 4 3 2 2 4 5 7 7 5 6 6 8 8 8 9 9 9 9 9 9 9 9 9 9
5 5 4 4 6 4 8 9 9 9 9 8 9 9 9 6 4 4 4 3 1 1 2 3 3 4 6 5 3 4 6 7 7 8 8 8 8 9 9 9 9 9 9 9
4 4 3 4 5 6 7 9 8 7 8 7 7 8 7 4 4 2 1 2 2 1 1 1 3 4 5 6 4 5 6 6 7 7 7 7 7 8 8 8 8 8 8 9
3 3 3 3 4 3 6 8 7 8 7 5 5 7 6 6 6 3 1 0 2 1 1 1 2 2 4 4 2 2 4 4 5 5 5 5 6 7 7 7 7 8 8 8
2 2 4 3 4 4 6 5 8 7 5 4 4 6 5 3 3 -1 -1 -1 0 -1 1 0 1 2 1 1 1 2 0 2 1 2 3 4 4 5 5 6 6 6 6 5
4 2 2 4 4 4 3 6 5 4 3 3 2 1 0 -1 -2 -2 -2 -1 -1 -1 0 1 1 1 1 1 1 1 1 -1 -0 -0 1 2 3 3 3 4 4 4 5 4
1 3 4 4 4 3 2 2 1 1 1 1 1 -0 -0 -2 -2 -2 -1 -2 -3 -2 -2 -2 -2 -2 -1 -0 0 -1 -1 -1 -1 -1 1 1 1 1 1 2 2 3 2 2
1 1 2 2 2 2 1 0 -1 -0 -1 -1 -0 -1 -1 -3 -3 -4 -4 -5 -4 -4 -3 -3 -3 -3 -3 -3 -2 -2 -2 -2 -3 -2 -1 -0 -0 -1 -1 -0 -0 0 0 -1
1 1 1 2 1 0 -1 -2 -2 -2 -2 -1 -1 -2 -2 -2 -4 -5 -6 -6 -6 -5 -4 -5 -5 -5 -5 -4 -4 -4 -3 -4 -4 -3 -3 -3 -2 -2 -2 -2 -3 -3 -5 -5
-1 -1 -1 1 -2 -1 -3 -3 -3 -3 -4 -3 -3 -2 -3 -3 -5 -5 -5 -6 -5 -5 -6 -7 -7 -7 -7 -6 -6 -5 -5 -5 -4 -4 -4 -5 -5 -5 -5 -6 -6 -7 -7 -6

GFSCGP_850_temp_096.txt.gz
Temp
12 12 13 15 16 17 17 17 17 19 19 18 19 20 21 21 20 20 20 20 20 21 21 21 21 20 18 18 17 16 14 17 17 17 16 15 12 12 11 11 11 11 11 11
13 13 15 16 16 14 12 13 16 18 18 18 18 19 21 21 20 19 20 20 21 21 21 21 20 20 18 18 19 16 15 17 17 17 16 15 14 12 11 11 11 11 11 11
13 15 15 14 14 12 13 15 16 16 18 18 18 18 19 21 21 21 20 19 19 18 18 19 19 19 18 17 18 16 15 17 17 16 15 15 13 11 10 10 11 11 11 10
13 15 13 12 13 13 14 16 16 15 15 16 17 17 19 20 20 20 18 17 16 16 16 17 18 18 19 17 16 15 14 16 16 16 16 15 13 12 10 11 10 10 10 10
12 12 12 12 13 15 14 16 15 15 16 16 16 16 19 19 18 18 18 16 16 15 15 16 16 17 18 17 15 14 12 14 16 17 15 15 12 12 9 11 10 10 10 11
13 13 13 14 14 15 15 14 15 15 15 14 16 17 18 19 17 16 16 16 15 15 15 15 15 16 17 17 15 13 12 13 16 16 15 14 11 11 10 10 10 10 10 10
13 13 13 13 11 13 14 14 12 13 13 14 16 15 18 17 16 16 16 15 15 14 14 14 14 15 17 16 14 12 12 13 15 15 15 15 13 10 10 9 10 10 10 10
12 10 12 13 13 13 13 14 15 13 14 16 15 15 17 17 16 16 16 15 14 13 12 12 12 13 15 15 14 12 12 12 14 15 15 15 11 13 10 10 10 10 10 10
12 12 14 13 13 14 13 13 14 13 12 13 16 16 16 16 17 17 16 15 13 12 11 10 8 13 15 15 14 11 12 11 11 11 15 15 13 12 10 10 10 9 9 9
13 11 12 12 14 13 14 15 13 13 12 13 16 15 16 16 15 16 16 14 12 10 8 7 9 12 15 15 14 11 11 11 11 10 12 15 13 10 10 10 9 10 9 10
13 13 11 12 13 13 13 13 13 14 13 13 14 15 15 14 14 14 14 11 10 8 6 5 6 10 14 14 13 10 10 10 11 11 11 13 13 10 10 9 9 9 9 9
11 12 11 12 12 15 15 14 14 13 11 12 12 14 14 14 14 13 11 9 8 6 4 4 4 6 11 11 10 10 10 10 10 11 10 11 11 9 10 9 9 9 9 10
11 11 10 10 12 13 13 13 13 12 12 11 12 15 15 15 14 12 7 7 7 5 3 3 2 2 7 9 9 9 10 10 10 10 10 10 10 9 9 10 9 9 9 10
10 11 12 12 12 13 11 12 13 13 12 12 13 14 15 14 13 12 6 6 5 4 1 1 0 0 2 7 9 9 9 9 9 10 10 9 9 10 10 9 9 9 9 9
10 10 11 11 12 12 12 12 12 12 12 11 13 13 14 12 10 10 6 4 3 2 1 1 -1 -1 0 3 7 8 9 9 9 9 9 9 9 9 10 9 9 9 9 9
7 8 11 10 11 11 11 12 12 12 12 12 12 13 13 10 7 4 3 3 2 -0 -0 2 0 -1 -1 -0 2 5 8 8 8 9 9 9 9 9 9 9 9 9 9 8
9 9 10 10 10 10 10 10 12 12 12 12 12 12 14 9 5 3 2 1 -0 -1 -0 -1 -0 0 -2 -1 0 3 4 5 6 7 7 8 8 8 9 9 9 9 9 9
9 9 9 9 9 9 10 12 11 11 11 11 11 12 10 6 1 -0 -0 -0 -1 -2 -1 -0 -0 -1 0 1 1 2 2 4 3 3 5 5 7 6 7 8 8 8 8 8
9 9 8 8 9 10 10 9 9 9 10 8 8 9 5 4 2 -1 -2 -2 -2 -2 -2 -2 -1 0 0 1 -1 1 3 3 2 3 4 4 6 6 3 6 6 6 6 7
8 8 9 8 8 8 8 9 9 10 10 5 5 7 7 4 7 1 -4 -3 -2 -2 -2 -3 -3 0 2 1 2 3 4 4 4 3 3 4 4 5 5 4 6 4 5 5
7 7 7 6 7 8 5 8 9 9 6 4 2 0 0 -1 -2 -4 -4 -3 -4 -4 -3 -3 -4 -2 -0 0 1 2 1 2 1 2 3 4 4 4 4 2 2 1 1 1
7 7 7 7 7 6 1 7 6 2 1 1 -0 -1 -2 -3 -3 -3 -3 -3 -4 -5 -4 -5 -5 -4 -4 -3 -2 -1 -1 -2 -2 0 1 1 1 1 -0 -0 -1 -1 0 0
5 4 4 3 3 -0 -1 -2 -2 -2 -2 -1 -1 -2 -3 -4 -4 -4 -4 -5 -5 -5 -6 -6 -6 -6 -5 -4 -4 -4 -4 -3 -2 -2 -1 -1 -1 -1 -2 -2 -1 -1 -1 -1
3 3 4 3 0 -0 -2 -2 -3 -3 -3 -3 -3 -3 -3 -4 -5 -5 -6 -5 -6 -6 -7 -7 -7 -7 -8 -7 -6 -6 -5 -5 -4 -3 -3 -2 -2 -2 -2 -2 -4 -3 -3 -4
4 4 2 2 0 0 -2 -3 -3 -4 -4 -4 -5 -5 -4 -4 -5 -5 -6 -7 -7 -7 -8 -8 -8 -8 -8 -7 -6 -6 -7 -7 -6 -5 -4 -4 -4 -3 -3 -3 -4 -5 -5 -5
1 0 2 2 -1 -1 -3 -4 -5 -5 -6 -5 -5 -5 -6 -6 -6 -7 -7 -8 -8 -9 -9 -9 -9 -9 -8 -7 -6 -5 -5 -7 -8 -8 -8 -8 -9 -9 -8 -6 -6 -6 -5 -5